Regional Weather Roundup
Issued by NWS

Home | Current Version | Previous Version | Text Only | Print | Product List | Glossary On
Versions: 1 2 3 4 5 6 7 8 9 10 11 12 13 14 15 16 17 18 19 20 21 22 23 24 25 26 27 28 29 30 31 32 33 34 35 36 37 38 39 40 41 42 43 44 45 46 47 48 49 50
000
ASUS46 KSTO 161115
RWRCA

NORTHERN AND CENTRAL CA REGIONAL WEATHER ROUNDUP
NATIONAL WEATHER SERVICE SACRAMENTO CA
300 AM PST SAT DEC 16 2017

NOTE: FAIR INDICATES FEW OR NO CLOUDS BELOW 12,000 FEET WITH NO
SIGNIFICANT WEATHER AND/OR OBSTRUCTIONS TO VISIBILITY.

CAZ001-003-161200-
NORTHWEST AREA

CITY           SKY/WX    TMP DP  RH WIND       PRES   REMARKS
CRESCENT CITY  CLEAR     50  37  61 N10       30.33R
UKIAH          CLEAR     48  34  58 NE8       30.07R
$$

CAZ006-505>513-161200-
BAY AREA

CITY           SKY/WX    TMP DP  RH WIND       PRES   REMARKS
SANTA ROSA     CLEAR     52  36  54 N12G23    30.00R
SAN RAFAEL     N/A       54  MM  MM MISG
NAPA           FOG       35  34  96 CALM      29.99R VSB 1/4
CONCORD        CLEAR     45  42  89 CALM      29.98F FOG
OAKLAND CITY   N/A      MM  MM  MM MISG
OAKLAND        PTCLDY    40  40 100 CALM      29.98F FOG
SAN FRAN CITY  N/A       53  MM  68 MISG
SAN FRAN ARPT  PTCLDY    51  44  77 W9        29.98F
LIVERMORE      CLEAR     39  37  92 CALM      29.96F FOG
HAYWARD        CLEAR     45  41  86 CALM      29.97F FOG
REDWOOD CITY   N/A       42  MM  92 MISG
MOFFETT ARPT   CLEAR     46  43  89 CALM      29.98F
SAN JOSE ARPT  PTCLDY    47  44  90 SW3       29.97F FOG
$$
CAZ034-037-514>518-161200-
CENTRAL COAST

CITY           SKY/WX    TMP DP  RH WIND       PRES   REMARKS
WATSONVILLE    CLOUDY    46  43  89 NW6       29.96F
SALINAS        CLOUDY    52  50  93 VRB3      29.95F FOG
MONTEREY       CLOUDY    55  51  86 SW7       29.96F
SAN LUIS OBISP CLEAR     49  47  93 S3        29.87F FOG
SANTA MARIA    CLOUDY    50  49  96 CALM      29.89F FOG
$$
CAZ015-016-161200-
NORTHERN SACRAMENTO VALLEY

CITY           SKY/WX    TMP DP  RH WIND       PRES   REMARKS
REDDING        CLEAR     52  24  33 N15       30.14R
RED BLUFF      CLEAR     53  28  38 NW20G31   30.10R
OROVILLE       CLEAR     51  35  54 NW14G23   29.98F
$$
CAZ016>018-161200-
SOUTHERN SACRAMENTO VALLEY

CITY           SKY/WX    TMP DP  RH WIND       PRES   REMARKS
AUBURN         CLEAR     39  36  87 CALM      29.92S
BEALE AFB      CLEAR     43  39  88 N12       29.93S
LINCOLN        CLOUDY    32  32 100 CALM      29.93F VSB 1/4
MARYSVILLE     CLEAR     52  37  56 NW23G31   29.95F
SAC INTL ARPT  CLEAR     49  38  65 N15       29.93F
MATHER AIRPORT CLEAR     45  43  93 W7        29.93
DOWNTOWN SAC   N/A       44  MM  MM MISG
SAC EXEC ARPT  CLEAR     44  38  79 NW6       29.93F
VACAVILLE      CLEAR     59  28  30 N14G28    29.97S
TRAVIS AFB     CLEAR     57  31  36 N15G26    29.93F
$$
CAZ019>021-161200-
SAN JOAQUIN VALLEY

CITY           SKY/WX    TMP DP  RH WIND       PRES   REMARKS
STOCKTON       CLEAR     45  41  86 NW10      29.92F
MODESTO        CLEAR     44  41  89 NW7       29.91F FOG
MERCED         PTCLDY    47  40  76 NW10      29.89F HAZE
LEMOORE        CLEAR    N/A N/A N/A W7        29.90F HAZE
FRESNO         CLOUDY    45  41  86 W5        29.90F FOG
HANFORD        PTCLDY    40  38  93 CALM      29.91F FOG
PORTERVILLE    CLOUDY    44  37  76 CALM      29.93R HAZE
BAKERSFIELD    CLOUDY    46  35  65 NE3       29.88S HAZE
$$
CAZ011-012-071-161200-
NORTHERN MOUNTAINS

CITY           SKY/WX    TMP DP  RH WIND       PRES   REMARKS
YREKA          PTCLDY    33  26  75 E5        30.27F WCI  29
MOUNT SHASTA   CLEAR     33  25  72 NW14G26   30.17R WCI  23
ALTURAS        MOCLDY    30  25  81 N5        30.15R WCI  25
$$
CAZ011-012-071-161200-
SIERRA NEVADA MTNS

CITY           SKY/WX    TMP DP  RH WIND       PRES   REMARKS
BLUE CANYON    CLEAR     38  27  64 NE10G23   29.96F WCI  31
TRUCKEE        CLOUDY    32  32 100 CALM      30.03S
TAHOE VLY ARPT FLURRIES  34  31  88 NE3       29.99S
MAMMOTH LAKES  MOCLDY    37  14  38 SW5       29.91S WCI  33
$$




USA.gov is the U.S. government's official web portal to all federal, state and local government web resources and services.